User: anonymous   Login
Location: Lanoux
(43.1180°N, 1.4255°E)
Time: 15:02:45
(UTC+00:00)
Language:

ITAMSAT 1 - Orbit

View from above orbital plane
View from above orbital plane
View from above satellite
View from above satellite

Ground track
Ground track

The orbit is defined by the following mean orbital elements,

1 22826U          26109.12058919 +.00000000 +00000-0 +44487-4 0 00007
2 22826  98.6861 176.4573 0007782 254.9503 105.0819 14.31351209    08
Epoch (UTC): 19 April 2026 02:53:38
Eccentricity: 0.0007782
inclination: 98.6861°
perigee height: 782 km
apogee height: 793 km
right ascension of ascending node: 176.4573°
argument of perigee: 254.9503°
revolutions per day: 14.31351209
mean anomaly at epoch: 105.0819°

The dashed part of the orbit path shows where the satellite is in the earth's shadow,  

DLR